sat.trackr.live / text

‹ back to catalog

STARLINK-11386 [DTC]

NORAD 62098 · 2024-220L

PAYLOAD ACTIVE UNKNOWN

§ Identity

Operator
Country
US
Launch date
2024-11-25
Launch site
AFETR
Launch vehicle
Mass (kg)
RCS (m²)

Purposes: comms

External: N2YO · Heavens-Above · Gunter

§ Orbital elements

Epoch: 2026-09-20T10:07:13.804320Z

Period
91.67 min
Inclination
42.9998°
Eccentricity
0.0000579
Mean motion
15.70862791 rev/d
Perigee alt
356.0 km
Apogee alt
356.8 km
Semi-major
6,734.6 km
B*
1.3148e-3
RAAN
308.9193°
Arg perigee
262.5046°
Mean anomaly
97.5755°
Rev number
10,558

§ Raw data

STARLINK-11386 [DTC]1 62098U 24220L   26263.42168755  .00171954  00000+0  13148-2 0  99972 62098  42.9998 308.9193 0000579 262.5046  97.5755 15.70862791105580

JSON: /api/v1/satellites/62098 · /tle

For live sub-satellite position, see the globe view (requires WebGL).

§ Visibility from observer

Set your observer location to see the next 7 days of passes ≥ 10°. The values pass through the URL so the page stays shareable.

No JS? Fill the form by hand. The geolocation button needs JavaScript.